Overview Statistics Trail Chart Weather Telemetry Raw packets
 

This is the latest recevied weather packets stored in our database for station/object EA2KR-10. If no packets are shown the sender has not sent any weather packets the latest 10 day(s).

<< 16 17 18 19 20 >>
Time Temp. Humidity Pressure Rain* Wind** Luminosity Snow
1787830400 29.44° C 31% 1023.2 hPa - - - -
1787828600 29.44° C 32% 1023.1 hPa - - - -
1787826800 28.89° C 32% 1023.6 hPa - - - -
1787825000 28.33° C 33% 1023.5 hPa - - - -
1787823200 27.78° C 33% 1023.6 hPa - - - -
1787821400 27.22° C 33% 1023.6 hPa - - - -
1787819600 26.67° C 34% 1023.7 hPa - - - -
1787817799 26.11° C 34% 1023.6 hPa - - - -
1787815999 25.56° C 35% 1023.5 hPa - - - -
1787814199 25.56° C 34% 1023.5 hPa - - - -
1787812404 25.56° C 34% 1023.1 hPa - - - -
1787810604 25.56° C 32% 1023 hPa - - - -
1787808804 25.56° C 31% 1022.7 hPa - - - -
1787807004 26.11° C 30% 1022.7 hPa - - - -
1787805203 26.11° C 29% 1022.6 hPa - - - -
1787803403 26.11° C 28% 1022.9 hPa - - - -
1787801603 26.67° C 28% 1023.1 hPa - - - -
1787799803 26.67° C 27% 1023 hPa - - - -
1787798003 27.22° C 28% 1023.2 hPa - - - -
1787796202 27.78° C 27% 1023.3 hPa - - - -
1787794402 27.78° C 27% 1023.4 hPa - - - -
1787792602 28.33° C 26% 1023.2 hPa - - - -
1787790802 28.33° C 26% 1023.4 hPa - - - -
1787789001 28.89° C 26% 1023.7 hPa - - - -
1787787201 29.44° C 24% 1023.5 hPa - - - -

* Rain since midnight (hover to see other rain measurements)
** Current wind speed in m/s (hover to see current wind gust speed)